This is the latest recevied weather packets stored in our database for station/object N4CRH-13. If no packets are shown the sender has not sent any weather packets the latest 10 day(s).
| Time | Temp. | Humidity | Pressure | Rain* | Wind** | Luminosity | Snow |
|---|---|---|---|---|---|---|---|
| 1777598668 | 1.67° C | 97% | 1298 hPa | 0 mm | - | 9 W/m² | - |
| 1777598363 | 1.67° C | 97% | 1298 hPa | 0 mm | - | 16 W/m² | - |
| 1777598062 | 1.67° C | 97% | 1297.8 hPa | 0 mm | - | 23 W/m² | - |
| 1777597761 | 1.67° C | 97% | 1297.6 hPa | 0 mm | - | 20 W/m² | - |
| 1777597456 | 1.67° C | 98% | 1297.8 hPa | 0 mm | - | 19 W/m² | - |
| 1777597152 | 1.67° C | 98% | 1297.8 hPa | 0 mm | - | 17 W/m² | - |
| 1777596849 | 1.11° C | 98% | 1297.6 hPa | 0 mm | - | 18 W/m² | - |
| 1777596544 | 1.11° C | 98% | 1297.6 hPa | 0 mm | - | 21 W/m² | - |
| 1777596242 | 1.11° C | 98% | 1297.6 hPa | 0 mm | - | 24 W/m² | - |
| 1777595939 | 1.11° C | 98% | 1297.6 hPa | 0 mm | - | 22 W/m² | - |
| 1777595638 | 1.11° C | 98% | 1297.6 hPa | 0 mm | - | 11 W/m² | - |
| 1777595335 | 1.11° C | 98% | 1297.9 hPa | 0 mm | - | 9 W/m² | - |
| 1777595031 | 1.11° C | 98% | 1297.8 hPa | 1.27 mm | - | 12 W/m² | - |
| 1777594728 | 1.11° C | 98% | 1297.6 hPa | 1.27 mm | - | 12 W/m² | - |
| 1777594424 | 1.11° C | 98% | 1297.5 hPa | 0 mm | - | 17 W/m² | - |
| 1777594120 | 1.11° C | 98% | 1297.5 hPa | 0 mm | - | 28 W/m² | - |
| 1777593816 | 1.11° C | 98% | 1297.6 hPa | 0 mm | - | 24 W/m² | - |
| 1777593513 | 1.11° C | 98% | 1297.5 hPa | 0 mm | - | 22 W/m² | - |
| 1777593207 | 1.11° C | 98% | 1297.6 hPa | 0 mm | - | 21 W/m² | - |
| 1777592901 | 1.11° C | 98% | 1297.6 hPa | 0 mm | - | 17 W/m² | - |
| 1777592597 | 1.11° C | 98% | 1297.3 hPa | 0 mm | - | 30 W/m² | - |
| 1777592293 | 1.11° C | 98% | 1297.3 hPa | 0 mm | - | 35 W/m² | - |
| 1777591988 | 1.11° C | 98% | 1297.3 hPa | 1.78 mm | - | 45 W/m² | - |
| 1777591684 | 1.11° C | 98% | 1297.5 hPa | 1.78 mm | - | 50 W/m² | - |
| 1777591380 | 1.11° C | 98% | 1297.4 hPa | 0 mm | - | 64 W/m² | - |
* Rain latest hour (hover to see other rain measurements)
** Current wind speed in m/s (hover to see current wind gust speed)